sat.trackr.live / text

‹ back to catalog

STARLINK-37310

NORAD 68679 · 2026-077T

PAYLOAD ACTIVE UNKNOWN

§ Identity

Operator
Country
US
Launch date
2026-04-11
Launch site
AFWTR
Launch vehicle
Mass (kg)
RCS (m²)

Purposes: comms

External: N2YO · Heavens-Above · Gunter

§ Orbital elements

Epoch: 2026-09-18T03:24:27.306144Z

Period
93.91 min
Inclination
97.2868°
Eccentricity
0.0002175
Mean motion
15.33445165 rev/d
Perigee alt
464.1 km
Apogee alt
467.0 km
Semi-major
6,843.7 km
B*
2.0677e-4
RAAN
131.0992°
Arg perigee
67.1515°
Mean anomaly
292.9957°
Rev number
2,465

§ Raw data

STARLINK-373101 68679U 26077T   26261.14198271  .00006606  00000+0  20677-3 0  99902 68679  97.2868 131.0992 0002175  67.1515 292.9957 15.33445165 24650

JSON: /api/v1/satellites/68679 · /tle

For live sub-satellite position, see the globe view (requires WebGL).

§ Visibility from observer

Set your observer location to see the next 7 days of passes ≥ 10°. The values pass through the URL so the page stays shareable.

No JS? Fill the form by hand. The geolocation button needs JavaScript.